FW4686 Weather Reports


time (UTC)temp
C
wind
direction
speed
KPH
gust
KPH
rain 1hr
cm
rain 24hr
cm
rain mn
cm
humidity
%
barometer
mb
20260504014723 10 198 0.0 4.8 0.00 0.00 0.00 50 1012.8
20260504014224 10 262 0.0 4.8 0.00 0.00 0.00 50 1012.9
20260504013722 10 264 0.0 4.8 0.00 0.00 0.00 49 1012.8
20260504013453 10 181 0.0 3.2 0.00 0.00 0.00 49 1012.9
20260504012722 10 192 0.0 1.6 0.00 0.00 0.00 49 1012.8
20260504012222 10 190 0.0 0.0 0.00 0.00 0.00 49 1012.8
20260504011723 10 191 0.0 3.2 0.00 0.00 0.00 49 1012.9
20260504011222 11 195 0.0 3.2 0.00 0.00 0.00 49 1012.9
20260504010724 11 191 0.0 3.2 0.00 0.00 0.00 48 1012.9
20260504010222 11 195 0.0 3.2 0.00 0.00 0.00 47 1012.8
20260504005723 11 212 0.0 4.8 0.00 0.00 0.00 46 1012.7
20260504005222 11 188 0.0 4.8 0.00 0.00 0.00 46 1012.8
20260504004723 11 179 0.0 4.8 0.00 0.00 0.00 45 1012.7
20260504004453 11 245 0.0 8.0 0.00 0.00 0.00 45 1012.8
20260504003722 11 224 0.0 8.0 0.00 0.00 0.00 44 1012.7
20260504003222 12 223 0.0 4.8 0.00 0.00 0.00 44 1012.8
20260504002722 12 266 0.0 6.4 0.00 0.00 0.00 44 1012.7
20260504002455 12 197 0.0 6.4 0.00 0.00 0.00 45 1012.7
20260504001723 12 192 0.0 11.3 0.00 0.00 0.00 44 1012.7
20260504001223 12 187 0.0 11.3 0.00 0.00 0.00 43 1012.7
20260504000723 12 254 0.0 4.8 0.00 0.00 0.00 43 1012.6
20260504000223 12 239 0.0 4.8 0.00 0.00 0.00 43 1012.6
20260503235723 12 249 0.0 9.7 0.00 0.00 0.00 42 1012.7
20260503235454 12 218 0.0 9.7 0.00 0.00 0.00 42 1012.7
20260503234722 12 163 0.0 3.2 0.00 0.00 0.00 42 1012.7
20260503234453 12 245 0.0 4.8 0.00 0.00 0.00 42 1012.7
20260503233955 12 261 0.0 9.7 0.00 0.00 0.00 40 1012.7
20260503233222 13 196 0.0 9.7 0.00 0.00 0.00 42 1012.6
20260503232722 13 179 0.0 4.8 0.00 0.00 0.00 40 1012.6
20260503232222 13 241 0.0 14.5 0.00 0.00 0.00 40 1012.7
20260503231953 13 240 1.6 14.5 0.00 0.00 0.00 39 1012.6
20260503231223 13 256 0.0 8.0 0.00 0.00 0.00 37 1012.6
20260503230722 13 145 0.0 8.0 0.00 0.00 0.00 41 1012.7
20260503230221 13 130 1.6 12.9 0.00 0.00 0.00 38 1012.7
20260503225953 13 276 1.6 12.9 0.00 0.00 0.00 36 1012.7
20260503225222 13 273 1.6 16.1 0.00 0.00 0.00 38 1012.7
20260503224722 13 247 1.6 16.1 0.00 0.00 0.00 39 1012.7
20260503224222 13 279 3.2 16.1 0.00 0.00 0.00 38 1012.8
20260503223722 13 215 3.2 17.7 0.00 0.00 0.00 36 1012.9
20260503223223 13 238 3.2 17.7 0.00 0.00 0.00 35 1012.8
20260503222718 13 262 3.2 17.7 0.00 0.00 0.00 36 1013.0
20260503222218 13 113 3.2 25.7 0.00 0.00 0.00 35 1012.8
20260503221727 14 309 1.6 12.9 0.00 0.00 0.00 35 1012.8
20260503221718 14 226 1.6 25.7 0.00 0.00 0.00 34 1012.8
20260503220718 14 223 3.2 19.3 0.00 0.00 0.00 35 1012.8
20260503220218 14 257 3.2 19.3 0.00 0.00 0.00 36 1012.8
20260503215718 14 302 3.2 12.9 0.00 0.00 0.00 36 1012.8
20260503215218 14 165 4.8 16.1 0.00 0.00 0.00 33 1012.8
20260503214718 14 297 4.8 16.1 0.00 0.00 0.00 34 1012.8
20260503214216 14 301 3.2 16.1 0.00 0.00 0.00 33 1012.7
20260503213716 13 184 3.2 25.7 0.00 0.00 0.00 34 1012.8
20260503213215 13 302 3.2 25.7 0.00 0.00 0.00 35 1012.7
20260503212716 14 338 3.2 17.7 0.00 0.00 0.00 33 1012.7
20260503212216 15 226 3.2 17.7 0.00 0.00 0.00 32 1012.6
20260503211716 15 296 4.8 19.3 0.00 0.00 0.00 34 1012.6
20260503211215 14 264 4.8 19.3 0.00 0.00 0.00 32 1012.6
20260503210716 14 279 4.8 27.4 0.00 0.00 0.00 32 1012.6
20260503210215 15 176 4.8 27.4 0.00 0.00 0.00 32 1012.6
20260503205715 15 264 1.6 17.7 0.00 0.00 0.00 32 1012.6
20260503205447 14 234 4.8 25.7 0.00 0.00 0.00 34 1012.6
20260503204716 15 199 4.8 25.7 0.00 0.00 0.00 31 1012.7
20260503204216 15 56 4.8 17.7 0.00 0.00 0.00 32 1012.8
20260503203715 15 184 3.2 17.7 0.00 0.00 0.00 31 1012.8
20260503203216 15 205 1.6 14.5 0.00 0.00 0.00 34 1012.8
20260503202715 15 198 3.2 14.5 0.00 0.00 0.00 31 1012.9
20260503202216 15 252 3.2 11.3 0.00 0.00 0.00 32 1013.0
20260503201716 15 268 4.8 19.3 0.00 0.00 0.00 34 1013.1
20260503201217 15 139 4.8 22.5 0.00 0.00 0.00 35 1013.1
20260503200717 15 243 6.4 22.5 0.00 0.00 0.00 34 1013.2
20260503200448 15 255 8.0 27.4 0.00 0.00 0.00 32 1013.3
20260503195717 14 354 8.0 27.4 0.00 0.00 0.00 33 1013.3
20260503195216 14 194 6.4 17.7 0.00 0.00 0.00 33 1013.4
20260503194716 15 245 4.8 17.7 0.00 0.00 0.00 34 1013.5
20260503194216 15 284 4.8 17.7 0.00 0.00 0.00 33 1013.5
20260503193715 14 186 4.8 22.5 0.00 0.00 0.00 34 1013.6
20260503193216 14 333 4.8 22.5 0.00 0.00 0.00 31 1013.7
20260503192715 14 285 4.8 17.7 0.00 0.00 0.00 34 1013.8
20260503192216 14 296 4.8 17.7 0.00 0.00 0.00 33 1013.8
20260503191715 15 341 4.8 17.7 0.00 0.00 0.00 35 1013.8
20260503191216 14 221 4.8 19.3 0.00 0.00 0.00 35 1014.1
20260503190715 14 352 6.4 19.3 0.00 0.00 0.00 35 1014.2
20260503190229 14 290 6.4 24.1 0.00 0.00 0.00 35 1014.3
20260503185716 14 338 6.4 24.1 0.00 0.00 0.00 36 1014.4
20260503185216 13 211 4.8 20.9 0.00 0.00 0.00 35 1014.4
20260503184716 13 227 4.8 19.3 0.00 0.00 0.00 36 1014.6
20260503184216 13 75 4.8 16.1 0.00 0.00 0.00 36 1014.6
20260503183716 13 304 6.4 17.7 0.00 0.00 0.00 36 1014.7
20260503183216 14 322 6.4 17.7 0.00 0.00 0.00 39 1014.8
20260503182716 13 258 4.8 17.7 0.00 0.00 0.00 35 1014.8
20260503182216 13 308 4.8 19.3 0.00 0.00 0.00 36 1014.7
20260503181716 13 249 8.0 24.1 0.00 0.00 0.00 37 1014.9
20260503181447 13 236 8.0 24.1 0.00 0.00 0.00 37 1014.8
20260503180716 13 283 4.8 22.5 0.00 0.00 0.00 38 1014.9
20260503180216 13 236 6.4 24.1 0.00 0.00 0.00 38 1015.0
20260503175716 13 221 4.8 24.1 0.00 0.00 0.00 36 1015.0
20260503175216 13 172 6.4 24.1 0.00 0.00 0.00 38 1015.0
20260503174716 13 315 8.0 24.1 0.00 0.00 0.00 39 1015.0
20260503174216 13 266 6.4 22.5 0.00 0.00 0.00 37 1015.1
20260503173715 13 294 6.4 24.1 0.00 0.00 0.00 40 1015.3
20260503173215 13 328 6.4 24.1 0.00 0.00 0.00 38 1015.3
20260503172716 12 13 4.8 19.3 0.00 0.03 0.00 39 1015.2
20260503172216 12 242 3.2 16.1 0.00 0.03 0.00 37 1015.3
20260503171716 12 278 4.8 17.7 0.00 0.03 0.00 38 1015.4
20260503171215 12 260 4.8 17.7 0.00 0.03 0.00 38 1015.4
20260503170716 12 292 4.8 19.3 0.00 0.03 0.00 36 1015.5
20260503170215 12 283 4.8 19.3 0.00 0.03 0.00 38 1015.5
20260503160217 11 191 6.4 20.9 0.00 0.03 0.00 39 1016.1
20260503150716 10 270 6.4 19.3 0.00 0.03 0.00 35 1016.4
20260503150448 10 237 3.2 16.1 0.00 0.03 0.00 36 1016.2
20260503140214 8 168 3.2 11.3 0.00 0.03 0.00 45 1016.5
20260503130715 6 311 4.8 14.5 0.00 0.03 0.00 59 1016.8
20260503130446 6 232 3.2 19.3 0.00 0.03 0.00 61 1016.8
20260503120215 3 274 1.6 6.4 0.00 0.03 0.00 72 1016.4
20260503110713 1 191 0.0 0.0 0.00 0.03 0.00 85 1016.0
20260503110213 0 218 0.0 0.0 0.00 0.03 0.00 85 1016.0
20260503100214 0 280 0.0 0.0 0.00 0.10 0.00 85 1015.4
20260503090444 0 293 0.0 0.0 0.00 0.13 0.00 85 1015.5
20260503081214 0 293 0.0 0.0 0.00 0.13 0.00 84 1015.6
20260503080713 0 293 0.0 0.0 0.00 0.13 0.00 84 1015.4
20260503080214 0 293 0.0 0.0 0.00 0.13 0.00 83 1015.5
20260503072713 1 293 0.0 0.0 0.00 0.13 0.00 82 1015.4
20260503072213 1 293 0.0 0.0 0.00 0.13 0.00 81 1015.4
20260503071713 1 293 0.0 0.0 0.00 0.13 0.00 81 1015.4
20260503071214 1 293 0.0 0.0 0.00 0.13 0.00 80 1015.4
20260503070714 1 293 0.0 0.0 0.00 0.13 0.00 80 1015.4
20260503070213 1 293 0.0 0.0 0.00 0.13 0.00 80 1015.3
20260503054714 2 293 0.0 0.0 0.00 0.13 0.00 77 1015.6
20260503054215 2 293 0.0 0.0 0.00 0.13 0.00 78 1015.7
20260503053715 2 293 0.0 0.0 0.00 0.13 0.00 78 1015.6
20260503053215 2 293 0.0 0.0 0.00 0.13 0.00 78 1015.7
20260503052946 2 293 0.0 0.0 0.00 0.13 0.00 79 1015.7
20260503052215 2 293 0.0 0.0 0.00 0.13 0.00 80 1015.7
20260503051714 2 293 0.0 0.0 0.00 0.13 0.00 80 1015.7
20260503051215 2 293 0.0 0.0 0.00 0.13 0.00 80 1015.7
20260503050714 2 293 0.0 0.0 0.00 0.13 0.00 80 1015.8
20260503050151 2 293 0.0 0.0 0.00 0.13 0.00 81 1015.8
20260503045645 2 293 0.0 0.0 0.00 0.13 0.00 81 1015.9
20260503045145 2 293 0.0 0.0 0.00 0.13 0.00 80 1015.9
20260503044644 2 293 0.0 0.0 0.00 0.13 0.00 80 1015.9
20260503044144 2 293 0.0 0.0 0.00 0.13 0.00 79 1016.0
20260503043644 2 293 0.0 0.0 0.00 0.13 0.00 79 1016.0
20260503043144 2 293 0.0 0.0 0.00 0.13 0.00 80 1016.0
20260503042644 2 293 0.0 0.0 0.00 0.13 0.00 79 1016.0
20260503042157 2 293 0.0 0.0 0.00 0.13 0.00 78 1016.1
20260503041644 2 293 0.0 0.0 0.00 0.13 0.00 77 1016.0
20260503041144 2 293 0.0 0.0 0.00 0.13 0.00 76 1016.1
20260503040644 2 293 0.0 0.0 0.00 0.13 0.00 75 1016.0
20260503040144 2 293 0.0 0.0 0.00 0.13 0.00 75 1016.1
20260503035643 2 293 0.0 0.0 0.00 0.13 0.13 75 1016.1
20260503035414 2 293 0.0 0.0 0.00 0.13 0.13 76 1016.2
20260503034643 2 293 0.0 0.0 0.00 0.13 0.13 77 1016.2
20260503034143 2 293 0.0 0.0 0.00 0.13 0.13 76 1016.2
20260503033643 2 293 0.0 0.0 0.00 0.13 0.13 75 1016.1
20260503033143 2 293 0.0 0.0 0.00 0.13 0.13 74 1016.2
20260503032914 2 293 0.0 0.0 0.00 0.13 0.13 72 1016.1
20260503032143 2 293 0.0 0.0 0.00 0.13 0.13 72 1016.2
20260503031642 2 293 0.0 0.0 0.00 0.13 0.13 72 1016.3
20260503031155 2 293 0.0 0.0 0.00 0.13 0.13 72 1016.3
20260503030643 2 293 0.0 0.0 0.00 0.13 0.13 71 1016.2
20260503030143 2 293 0.0 0.0 0.00 0.13 0.13 73 1016.3
20260503025642 2 293 0.0 0.0 0.00 0.13 0.13 74 1016.4
20260503025142 2 293 0.0 0.0 0.00 0.13 0.13 74 1016.3
20260503024643 2 295 0.0 0.0 0.00 0.13 0.13 74 1016.4
20260503024143 2 295 0.0 0.0 0.00 0.13 0.13 74 1016.4
20260503023642 2 295 0.0 0.0 0.00 0.13 0.13 74 1016.4
20260503023142 2 295 0.0 0.0 0.00 0.13 0.13 75 1016.5
20260503022642 2 295 0.0 0.0 0.00 0.13 0.13 76 1016.5
20260503022142 2 295 0.0 0.0 0.00 0.13 0.13 75 1016.6
20260503021655 2 295 0.0 0.0 0.00 0.13 0.13 74 1016.6
20260503021142 3 295 0.0 0.0 0.00 0.13 0.13 74 1016.5
20260503020642 3 295 0.0 0.0 0.00 0.13 0.13 72 1016.5
20260503020143 3 295 0.0 0.0 0.00 0.13 0.13 70 1016.4
20260503015641 3 295 0.0 0.0 0.00 0.13 0.13 67 1016.5
20260503015141 3 295 0.0 0.0 0.00 0.13 0.13 67 1016.4